| time (UTC) | temp F | wind direction | speed MPH | gust MPH | rain 1hr in | rain 24hr in | rain mn in | humidity % | barometer mb |
| 20260502213027 | 68 | 257 | 0.0 | 2.0 | 0.00 | 0.00 | 0.00 | 51 | 1018.6 |
| 20260502211541 | 68 | 274 | 0.0 | 4.0 | 0.00 | 0.00 | 0.00 | 51 | 1018.7 |
| 20260502210026 | 69 | 255 | 1.0 | 6.0 | 0.00 | 0.00 | 0.00 | 52 | 1018.5 |
| 20260502204628 | 69 | 255 | 0.0 | 4.0 | 0.00 | 0.00 | 0.00 | 55 | 1018.5 |
| 20260502203024 | 69 | 182 | 0.0 | 4.0 | 0.00 | 0.00 | 0.00 | 56 | 1018.5 |
| 20260502201525 | 69 | 259 | 0.0 | 2.0 | 0.00 | 0.00 | 0.00 | 55 | 1018.4 |
| 20260502200023 | 69 | 118 | 0.0 | 1.0 | 0.00 | 0.00 | 0.00 | 56 | 1018.3 |
| 20260502194523 | 70 | 98 | 0.0 | 2.0 | 0.00 | 0.00 | 0.00 | 55 | 1018.1 |
| 20260502193023 | 70 | 108 | 0.0 | 1.0 | 0.00 | 0.00 | 0.00 | 54 | 1018.1 |
| 20260502191525 | 71 | 92 | 0.0 | 0.0 | 0.00 | 0.00 | 0.00 | 54 | 1018.0 |
| 20260502190028 | 72 | 300 | 0.0 | 1.0 | 0.00 | 0.00 | 0.00 | 53 | 1017.8 |
| 20260502184522 | 73 | 252 | 0.0 | 1.0 | 0.00 | 0.00 | 0.00 | 51 | 1017.8 |
| 20260502183020 | 74 | 244 | 0.0 | 3.0 | 0.00 | 0.00 | 0.00 | 50 | 1017.7 |
| 20260502181519 | 75 | 242 | 0.0 | 1.0 | 0.00 | 0.00 | 0.00 | 51 | 1017.6 |
| 20260502163017 | 80 | 243 | 1.0 | 3.0 | 0.00 | 0.00 | 0.00 | 41 | 1017.6 |
| 20260502161514 | 80 | 243 | 0.0 | 2.0 | 0.00 | 0.00 | 0.00 | 42 | 1017.7 |
| 20260502151507 | 84 | 233 | 0.0 | 1.0 | 0.00 | 0.00 | 0.00 | 37 | 1018.6 |
| 20260502123046 | 82 | 243 | 0.0 | 2.0 | 0.00 | 0.00 | 0.00 | 42 | 1020.9 |
| 20260502121548 | 80 | 235 | 1.0 | 3.0 | 0.00 | 0.00 | 0.00 | 42 | 1021.2 |
| 20260502114539 | 79 | 241 | 2.0 | 5.0 | 0.00 | 0.00 | 0.00 | 43 | 1021.7 |
| 20260502113036 | 78 | 246 | 0.0 | 5.0 | 0.00 | 0.00 | 0.00 | 45 | 1021.8 |
| 20260502111535 | 79 | 78 | 0.0 | 3.0 | 0.00 | 0.00 | 0.00 | 46 | 1021.9 |
| 20260502110030 | 77 | 249 | 1.0 | 4.0 | 0.00 | 0.00 | 0.00 | 48 | 1022.1 |
| 20260502104539 | 76 | 240 | 0.0 | 5.0 | 0.00 | 0.00 | 0.00 | 47 | 1022.4 |
| 20260502103025 | 76 | 107 | 0.0 | 4.0 | 0.00 | 0.00 | 0.00 | 48 | 1022.6 |
| 20260502101522 | 75 | 83 | 0.0 | 4.0 | 0.00 | 0.00 | 0.00 | 47 | 1022.8 |
| 20260502091511 | 71 | 80 | 1.0 | 6.0 | 0.00 | 0.00 | 0.00 | 50 | 1023.5 |
| 20260502080107 | 68 | 243 | 1.0 | 6.0 | 0.00 | 0.00 | 0.00 | 52 | 1024.1 |
| 20260502070046 | 63 | 227 | 0.0 | 2.0 | 0.00 | 0.00 | 0.00 | 57 | 1024.3 |
| 20260502064545 | 62 | 242 | 0.0 | 3.0 | 0.00 | 0.00 | 0.00 | 57 | 1024.3 |
| 20260502063041 | 61 | 236 | 1.0 | 5.0 | 0.00 | 0.00 | 0.00 | 57 | 1024.2 |
| 20260502061542 | 61 | 236 | 0.0 | 3.0 | 0.00 | 0.00 | 0.00 | 57 | 1024.3 |
| 20260502060036 | 58 | 235 | 0.0 | 4.0 | 0.00 | 0.00 | 0.00 | 61 | 1024.2 |
| 20260502054536 | 56 | 250 | 0.0 | 3.0 | 0.00 | 0.00 | 0.00 | 64 | 1024.3 |
| 20260502053046 | 55 | 245 | 0.0 | 3.0 | 0.00 | 0.00 | 0.00 | 64 | 1024.3 |
| 20260502051545 | 54 | 242 | 0.0 | 1.0 | 0.00 | 0.00 | 0.00 | 67 | 1024.2 |
| 20260502050042 | 53 | 247 | 0.0 | 5.0 | 0.00 | 0.00 | 0.00 | 66 | 1024.2 |
| 20260502044534 | 51 | 249 | 0.0 | 1.0 | 0.00 | 0.00 | 0.00 | 74 | 1024.0 |
| 20260502043035 | 50 | 86 | 0.0 | 0.0 | 0.00 | 0.00 | 0.00 | 76 | 1024.1 |
| 20260502041537 | 49 | 89 | 0.0 | 0.0 | 0.00 | 0.00 | 0.00 | 77 | 1024.0 |
| 20260502040033 | 49 | 89 | 0.0 | 1.0 | 0.00 | 0.00 | 0.00 | 77 | 1024.1 |
| 20260502034535 | 49 | 245 | 0.0 | 1.0 | 0.00 | 0.00 | 0.00 | 77 | 1024.2 |
| 20260502033031 | 50 | 244 | 0.0 | 0.0 | 0.00 | 0.00 | 0.00 | 77 | 1024.2 |
| 20260502031529 | 50 | 244 | 0.0 | 0.0 | 0.00 | 0.00 | 0.00 | 76 | 1024.2 |
| 20260502030028 | 51 | 245 | 0.0 | 0.0 | 0.00 | 0.00 | 0.00 | 76 | 1024.1 |
| 20260502024527 | 50 | 244 | 0.0 | 1.0 | 0.00 | 0.00 | 0.00 | 76 | 1024.3 |
| 20260502023026 | 51 | 256 | 0.0 | 0.0 | 0.00 | 0.00 | 0.00 | 73 | 1024.4 |
| 20260502021525 | 52 | 256 | 0.0 | 0.0 | 0.00 | 0.00 | 0.00 | 69 | 1024.1 |
| 20260502020024 | 52 | 256 | 0.0 | 1.0 | 0.00 | 0.00 | 0.00 | 68 | 1024.0 |
| 20260502014524 | 53 | 256 | 0.0 | 1.0 | 0.00 | 0.00 | 0.00 | 67 | 1024.1 |
| 20260502013022 | 53 | 256 | 0.0 | 1.0 | 0.00 | 0.00 | 0.00 | 67 | 1024.2 |
| 20260502011542 | 52 | 56 | 0.0 | 2.0 | 0.00 | 0.00 | 0.00 | 72 | 1024.4 |
| 20260502010023 | 52 | 244 | 0.0 | 1.0 | 0.00 | 0.00 | 0.00 | 73 | 1024.3 |
| 20260502004519 | 52 | 243 | 0.0 | 0.0 | 0.00 | 0.00 | 0.00 | 75 | 1024.3 |
| 20260502003023 | 52 | 243 | 0.0 | 0.0 | 0.00 | 0.00 | 0.00 | 76 | 1024.4 |
| 20260502001517 | 53 | 243 | 0.0 | 0.0 | 0.00 | 0.00 | 0.00 | 72 | 1024.6 |
| 20260502000015 | 53 | 243 | 0.0 | 0.0 | 0.00 | 0.00 | 0.00 | 70 | 1024.6 |
| 20260501234515 | 52 | 243 | 0.0 | 1.0 | 0.00 | 0.00 | 0.00 | 72 | 1024.6 |
| 20260501233013 | 53 | 205 | 0.0 | 0.0 | 0.00 | 0.00 | 0.00 | 75 | 1024.7 |
| 20260501231517 | 53 | 170 | 0.0 | 0.0 | 0.00 | 0.00 | 0.00 | 71 | 1024.7 |
| 20260501230009 | 54 | 170 | 0.0 | 0.0 | 0.00 | 0.00 | 0.00 | 72 | 1024.7 |
| 20260501224506 | 55 | 168 | 0.0 | 0.0 | 0.00 | 0.00 | 0.00 | 69 | 1024.7 |
| 20260501223005 | 55 | 168 | 0.0 | 0.0 | 0.00 | 0.00 | 0.00 | 71 | 1024.9 |
| 20260501221502 | 58 | 96 | 0.0 | 3.0 | 0.00 | 0.00 | 0.00 | 64 | 1024.6 |
| 20260501220101 | 58 | 77 | 0.0 | 2.0 | 0.00 | 0.00 | 0.00 | 60 | 1024.5 |
| 20260501214559 | 57 | 77 | 0.0 | 0.0 | 0.00 | 0.00 | 0.00 | 63 | 1024.6 |